• In Uzbekistan
  • List of Countries
  • For 7 days
  • Water Temperature
  • Satellite Maps
  • Weather Map
  • Weather Widgets
  • user-avatar
    Login

    Hourly Weather Cerqueira Cesar

    Today, 20 February, Tuesday

    Time Temperature Precipitation Wind Pressure Humidity
    00:00 +21°C° 0.8 mm 2 mps 696 mmHg 97%
    01:00 +21°C° 1 mm 2 mps 695 mmHg 97%
    02:00 +21°C° 1 mm 2 mps 695 mmHg 97%
    03:00 +21°C° 1 mm 3 mps 695 mmHg 97%
    04:00 +21°C° 0.1 mm 3 mps 695 mmHg 97%
    05:00 +20°C° 0.1 mm 3 mps 695 mmHg 97%
    06:00 +20°C° 0.1 mm 3 mps 695 mmHg 97%
    07:00 +21°C° 0.2 mm 3 mps 696 mmHg 94%
    08:00 +22°C° 0.2 mm 4 mps 696 mmHg 91%
    09:00 +25°C° 0.2 mm 5 mps 696 mmHg 88%
    10:00 +25°C° 1 mm 5 mps 696 mmHg 86%
    11:00 +26°C° 1 mm 5 mps 696 mmHg 84%
    12:00 +27°C° 1 mm 5 mps 696 mmHg 81%
    13:00 +27°C° 0.8 mm 5 mps 696 mmHg 81%
    14:00 +27°C° 0.8 mm 4 mps 695 mmHg 80%
    15:00 +27°C° 0.8 mm 4 mps 695 mmHg 80%
    16:00 +27°C° 0.3 mm 3 mps 694 mmHg 82%
    17:00 +26°C° 0.3 mm 3 mps 694 mmHg 85%
    18:00 +26°C° 0.3 mm 2 mps 694 mmHg 88%
    19:00 +25°C° 0.1 mm 2 mps 694 mmHg 91%
    20:00 +24°C° 0.1 mm 2 mps 694 mmHg 94%
    21:00 +23°C° 0.1 mm 2 mps 695 mmHg 97%
    22:00 +23°C° 1 mm 2 mps 695 mmHg 97%
    23:00 +23°C° 1 mm 2 mps 695 mmHg 97%

    Tomorrow, 21 February, Wednesday

    Time Temperature Precipitation Wind Pressure Humidity
    00:00 +23°C° 1 mm 2 mps 695 mmHg 98%
    01:00 +23°C° 0.7 mm 2 mps 695 mmHg 98%
    02:00 +21°C° 0.7 mm 2 mps 695 mmHg 98%
    03:00 +21°C° 0.7 mm 2 mps 694 mmHg 98%
    04:00 +21°C° 0.1 mm 2 mps 694 mmHg 98%
    05:00 +21°C° 0.1 mm 2 mps 695 mmHg 98%
    06:00 +21°C° 0.1 mm 2 mps 695 mmHg 98%
    07:00 +23°C° 0.1 mm 2 mps 695 mmHg 96%
    08:00 +24°C° 0.1 mm 2 mps 696 mmHg 94%
    09:00 +24°C° 0.1 mm 3 mps 696 mmHg 92%
    10:00 +25°C° 0.1 mm 3 mps 696 mmHg 88%
    11:00 +26°C° 0.1 mm 3 mps 696 mmHg 83%
    12:00 +27°C° 0.1 mm 3 mps 696 mmHg 79%
    13:00 +27°C° 0 mm 3 mps 695 mmHg 75%
    14:00 +28°C° 0 mm 3 mps 695 mmHg 71%
    15:00 +29°C° 0 mm 3 mps 694 mmHg 67%
    16:00 +29°C° 0 mm 2 mps 694 mmHg 70%
    17:00 +28°C° 0 mm 2 mps 694 mmHg 74%
    18:00 +28°C° 0 mm 1 mps 694 mmHg 78%
    19:00 +26°C° 0.4 mm 1 mps 694 mmHg 82%
    20:00 +25°C° 0.4 mm 1 mps 695 mmHg 86%
    21:00 +23°C° 0.4 mm 1 mps 695 mmHg 91%
    22:00 +23°C° 0 mm 2 mps 695 mmHg 92%
    23:00 +21°C° 0 mm 2 mps 696 mmHg 94%

    Day after tomorrow, 22 February, Thursday

    Time Temperature Precipitation Wind Pressure Humidity
    00:00 +21°C° 0 mm 3 mps 696 mmHg 95%
    01:00 +21°C° 0 mm 3 mps 695 mmHg 96%
    02:00 +20°C° 0 mm 2 mps 695 mmHg 96%
    03:00 +20°C° 0 mm 2 mps 695 mmHg 97%
    04:00 +20°C° 0 mm 2 mps 695 mmHg 97%
    05:00 +19°C° 0 mm 2 mps 695 mmHg 97%
    06:00 +19°C° 0 mm 2 mps 695 mmHg 97%
    07:00 +21°C° 0 mm 3 mps 696 mmHg 93%
    08:00 +22°C° 0 mm 3 mps 697 mmHg 88%
    09:00 +24°C° 0 mm 3 mps 697 mmHg 83%
    10:00 +26°C° 0 mm 3 mps 697 mmHg 77%
    11:00 +27°C° 0 mm 2 mps 697 mmHg 72%
    12:00 +29°C° 0 mm 2 mps 697 mmHg 66%
    13:00 +29°C° 0.1 mm 2 mps 697 mmHg 64%
    14:00 +30°C° 0.1 mm 2 mps 696 mmHg 62%
    15:00 +30°C° 0.1 mm 2 mps 696 mmHg 59%
    16:00 +29°C° 0 mm 2 mps 696 mmHg 64%
    17:00 +28°C° 0 mm 2 mps 696 mmHg 69%
    18:00 +27°C° 0 mm 2 mps 696 mmHg 73%
    19:00 +26°C° 0 mm 3 mps 696 mmHg 76%
    20:00 +23°C° 0 mm 4 mps 696 mmHg 79%
    21:00 +22°C° 0 mm 5 mps 697 mmHg 82%
    22:00 +21°C° 0 mm 5 mps 697 mmHg 83%
    23:00 +20°C° 0 mm 5 mps 697 mmHg 84%

    23 February, Friday

    Time Temperature Precipitation Wind Pressure Humidity
    00:00 +20°C° 0 mm 5 mps 698 mmHg 85%
    01:00 +19°C° 0 mm 5 mps 697 mmHg 86%
    02:00 +19°C° 0 mm 5 mps 697 mmHg 87%
    03:00 +19°C° 0 mm 5 mps 697 mmHg 87%
    04:00 +18°C° 0 mm 4 mps 697 mmHg 88%
    05:00 +18°C° 0 mm 4 mps 697 mmHg 89%
    06:00 +18°C° 0 mm 4 mps 697 mmHg 90%
    07:00 +19°C° 0 mm 5 mps 698 mmHg 86%
    08:00 +20°C° 0 mm 5 mps 699 mmHg 81%
    09:00 +22°C° 0 mm 5 mps 699 mmHg 77%
    10:00 +23°C° 0 mm 5 mps 699 mmHg 72%
    11:00 +26°C° 0 mm 5 mps 699 mmHg 67%
    12:00 +27°C° 0 mm 5 mps 699 mmHg 62%
    13:00 +28°C° 0 mm 4 mps 699 mmHg 60%
    14:00 +29°C° 0 mm 4 mps 698 mmHg 59%
    15:00 +29°C° 0 mm 4 mps 697 mmHg 57%
    16:00 +28°C° 0 mm 4 mps 697 mmHg 62%
    17:00 +27°C° 0 mm 4 mps 697 mmHg 66%
    18:00 +26°C° 0 mm 4 mps 697 mmHg 71%
    19:00 +25°C° 0 mm 4 mps 698 mmHg 73%
    20:00 +22°C° 0 mm 5 mps 698 mmHg 75%
    21:00 +21°C° 0 mm 6 mps 698 mmHg 77%
    22:00 +20°C° 0 mm 5 mps 699 mmHg 80%
    23:00 +19°C° 0 mm 5 mps 699 mmHg 82%

    24 February, Saturday

    Time Temperature Precipitation Wind Pressure Humidity
    00:00 +17°C° 0 mm 5 mps 699 mmHg 84%
    01:00 +17°C° 0 mm 5 mps 698 mmHg 85%
    02:00 +17°C° 0 mm 4 mps 698 mmHg 87%
    03:00 +17°C° 0 mm 4 mps 698 mmHg 88%
    04:00 +17°C° 0 mm 4 mps 698 mmHg 87%
    05:00 +17°C° 0 mm 4 mps 698 mmHg 86%
    06:00 +17°C° 0 mm 4 mps 698 mmHg 85%
    07:00 +17°C° 0 mm 5 mps 699 mmHg 82%
    08:00 +20°C° 0 mm 5 mps 699 mmHg 80%
    09:00 +21°C° 0 mm 5 mps 700 mmHg 77%
    10:00 +22°C° 0 mm 5 mps 700 mmHg 73%
    11:00 +25°C° 0 mm 4 mps 700 mmHg 69%
    12:00 +26°C° 0 mm 4 mps 700 mmHg 65%
    13:00 +27°C° 0 mm 4 mps 699 mmHg 64%
    14:00 +27°C° 0 mm 4 mps 698 mmHg 64%
    15:00 +28°C° 0 mm 4 mps 698 mmHg 63%
    16:00 +27°C° 0 mm 3 mps 698 mmHg 67%
    17:00 +26°C° 0 mm 3 mps 698 mmHg 71%
    18:00 +26°C° 0 mm 3 mps 697 mmHg 76%
    19:00 +25°C° 0 mm 3 mps 698 mmHg 77%
    20:00 +22°C° 0 mm 4 mps 698 mmHg 79%
    21:00 +21°C° 0 mm 4 mps 698 mmHg 80%
    22:00 +21°C° 0 mm 4 mps 698 mmHg 81%
    23:00 +20°C° 0 mm 4 mps 699 mmHg 81%

    25 February, Sunday

    Time Temperature Precipitation Wind Pressure Humidity
    00:00 +19°C° 0 mm 4 mps 699 mmHg 82%
    01:00 +19°C° 0 mm 4 mps 698 mmHg 82%
    02:00 +18°C° 0 mm 4 mps 698 mmHg 83%
    03:00 +18°C° 0 mm 4 mps 698 mmHg 83%
    04:00 +18°C° 0 mm 3 mps 698 mmHg 83%
    05:00 +18°C° 0 mm 3 mps 698 mmHg 84%
    06:00 +18°C° 0 mm 3 mps 698 mmHg 84%
    07:00 +19°C° 0 mm 3 mps 699 mmHg 82%
    08:00 +20°C° 0 mm 3 mps 699 mmHg 80%
    09:00 +21°C° 0 mm 3 mps 700 mmHg 77%
    10:00 +24°C° 0.1 mm 3 mps 700 mmHg 75%
    11:00 +25°C° 0.1 mm 3 mps 700 mmHg 73%
    12:00 +26°C° 0.1 mm 2 mps 699 mmHg 71%
    13:00 +26°C° 1.4 mm 2 mps 699 mmHg 74%
    14:00 +26°C° 1.4 mm 1 mps 698 mmHg 78%
    15:00 +23°C° 1.4 mm 0 mps 698 mmHg 81%
    16:00 +24°C° 1.8 mm 1 mps 697 mmHg 85%
    17:00 +24°C° 1.8 mm 1 mps 697 mmHg 89%
    18:00 +23°C° 1.8 mm 2 mps 697 mmHg 93%
    19:00 +21°C° 0.5 mm 2 mps 697 mmHg 94%
    20:00 +21°C° 0.5 mm 2 mps 697 mmHg 95%
    21:00 +21°C° 0.5 mm 2 mps 698 mmHg 96%
    22:00 +21°C° 0.2 mm 3 mps 698 mmHg 96%
    23:00 +20°C° 0.2 mm 3 mps 697 mmHg 96%
    Show more